[[{"header":{"parameterUnit":"m.s-1","parameterCategory":2,"la1":30.2991,"la2":30.254,"lo1":-89.0895,"lo2":-89.0444,"dy":0.0017,"dx":0.0017,"nx":28,"ny":28,"refTime":"2023-04-12T21:00:00:Z","depth":"0","parameterNumber":2,"parameterNumberName":"U-component_of_CURRENTS"},"data":[0,0,0,0,0,0,0,0,0,0,0,0,0,0,0,0,0,0,0,0,0,0,0,0,0,0,0,0,0,0,0,0,0,0,0,0,0,0,0,0,0,0,0,0,0,0,0,0,0,0,0,0,0,0,0,0,0,0,-0.1123,-0.1125,0,-0.1247,-0.1249,-0.125,-0.1182,-0.1178,-0.1175,-0.1172,-0.1128,-0.113,-0.1132,0,0,0,0,0,0,0,0,0,0,0,0,0,-0.1019,-0.102,-0.1123,-0.1125,-0.1126,-0.1247,-0.1249,-0.125,-0.1182,-0.1178,-0.1174,-0.117,-0.1128,-0.113,-0.1132,0,0,0,0,0,0,0,0,0,0,0,0,0,-0.1095,-0.1021,-0.1123,-0.1108,-0.1107,-0.1247,-0.1249,-0.1251,-0.1183,-0.1178,-0.1173,-0.1168,-0.1127,-0.113,-0.1132,-0.125,0,0,-0.1141,-0.1143,0,0,0,0,0,0,0,0,-0.109,-0.1098,-0.1108,-0.1109,-0.1109,-0.1195,-0.1197,-0.1243,-0.1184,-0.1153,-0.1172,-0.1166,-0.1139,-0.1141,-0.1176,-0.1248,-0.1246,-0.1142,-0.1143,-0.1145,-0.1145,0,0,0,0,0,0,0,-0.1085,-0.1094,-0.1171,-0.111,-0.1111,-0.1161,-0.1164,-0.1207,-0.1169,-0.1156,-0.1151,-0.1168,-0.1137,-0.1174,-0.1174,-0.1246,-0.1142,-0.1144,-0.1146,-0.1147,-0.1322,-0.1325,0,0,0,0,0,0,-0.1068,-0.1089,-0.1167,-0.1175,-0.1088,-0.1166,-0.117,-0.1172,-0.1172,-0.1169,-0.1172,-0.1165,-0.1171,-0.1171,-0.1172,-0.1235,-0.1145,-0.1147,-0.1149,-0.132,-0.1323,-0.1326,0,0,0,0,0,0,-0.1065,-0.1073,-0.1162,-0.1136,-0.1151,-0.1172,-0.1175,-0.1177,-0.1173,-0.1187,-0.1179,-0.1162,-0.1167,-0.1168,-0.1212,-0.1234,-0.1149,-0.1151,-0.1316,-0.1321,-0.1325,-0.1409,0,0,0,0,0,0,-0.1061,-0.1071,-0.1061,-0.1134,-0.1151,-0.1223,-0.118,-0.1183,-0.1194,-0.1184,-0.1177,-0.117,-0.1164,-0.1208,-0.1215,-0.1237,-0.1154,-0.1312,-0.1318,-0.1323,-0.1402,-0.1416,-0.1427,0,0,0,0,0,-0.1057,-0.1065,-0.106,-0.1069,-0.1138,-0.1224,-0.1238,-0.1237,-0.1198,-0.1211,-0.1222,-0.1168,-0.1245,-0.1215,-0.1221,-0.1244,-0.131,-0.1316,-0.1323,-0.1397,-0.1413,-0.1427,0,0,0,0,0,0,-0.102,-0.1062,-0.1056,-0.1075,-0.1134,-0.1211,-0.1229,-0.1234,-0.126,-0.123,-0.1227,-0.1225,-0.1274,-0.1261,-0.1226,-0.1313,-0.1262,-0.127,-0.1316,-0.1331,-0.1343,-0.1301,-0.1156,0,0,0,0,0,-0.1011,-0.1006,-0.1082,-0.109,-0.1124,-0.1175,-0.1204,-0.1207,-0.1248,-0.125,-0.1263,-0.1276,-0.1323,-0.1321,-0.1361,-0.1416,-0.1348,-0.1431,-0.1443,-0.1453,-0.1427,-0.1493,-0.1508,-0.1348,-0.1348,-0.1348,0,0,-0.0987,-0.1018,-0.1008,-0.1079,-0.1123,-0.1174,-0.1178,-0.1218,-0.1248,-0.1246,-0.1286,-0.1329,-0.1354,-0.1421,-0.1436,-0.1397,-0.1431,-0.1462,-0.147,-0.1437,-0.1501,-0.1516,-0.153,-0.1352,-0.1351,-0.1351,0,0,-0.0955,-0.0984,-0.0971,-0.1037,-0.1103,-0.1155,-0.1161,-0.1242,-0.1261,-0.1327,-0.1344,-0.1401,-0.1452,-0.1494,-0.1515,-0.162,-0.1512,-0.1625,-0.1634,-0.17,-0.1713,-0.1724,-0.1505,-0.1497,-0.1612,-0.1612,-0.1612,0,-0.0917,-0.0931,-0.0988,-0.1026,-0.1075,-0.114,-0.1171,-0.1233,-0.1312,-0.1356,-0.1326,-0.1474,-0.1483,-0.1592,-0.1616,-0.1642,-0.1575,-0.1575,-0.1714,-0.1725,-0.1734,-0.1509,-0.1499,-0.1617,-0.1617,-0.1616,-0.1616,0,-0.0893,-0.0917,-0.0937,-0.099,-0.1057,-0.1105,-0.1206,-0.1264,-0.1295,-0.1361,-0.1475,-0.1541,-0.161,-0.1644,-0.1648,-0.1748,-0.163,-0.1737,-0.1669,-0.1755,-0.151,-0.1497,-0.1624,-0.1622,-0.1621,-0.162,0,0,-0.0786,-0.0884,-0.0893,-0.0914,-0.1046,-0.1092,-0.1184,-0.1298,-0.1331,-0.1443,-0.1505,-0.1634,-0.1675,-0.1702,-0.1753,-0.1801,-0.1758,-0.1783,-0.1784,-0.1541,-0.1696,-0.1431,-0.1388,-0.1924,-0.1927,-0.1929,-0.1439,0,-0.0747,-0.0777,-0.0861,-0.091,-0.0947,-0.1074,-0.115,-0.1261,-0.1348,-0.1433,-0.1563,-0.1628,-0.17,-0.171,-0.1801,-0.1825,-0.1755,-0.1865,-0.1667,-0.1653,-0.1399,-0.1381,-0.1273,-0.0821,-0.1426,-0.1424,-0.1422,0,-0.0713,-0.0738,-0.0766,-0.0864,-0.0894,-0.0937,-0.1068,-0.1144,-0.1316,-0.1375,-0.1518,-0.1601,-0.1709,-0.1739,-0.1779,-0.1857,-0.1737,-0.1715,-0.1699,-0.1421,-0.1373,-0.0868,-0.0774,-0.0868,-0.1401,-0.1403,-0.1404,0,-0.062,-0.0689,-0.0694,-0.0737,-0.0856,-0.0892,-0.0958,-0.112,-0.1172,-0.1325,-0.1329,-0.1545,-0.1538,-0.1628,-0.1566,-0.1683,-0.1504,-0.1667,-0.1255,-0.1222,-0.1067,-0.1021,-0.1034,-0.1584,-0.1585,-0.1587,-0.1588,0,-0.0582,-0.0595,-0.0633,-0.0657,-0.0664,-0.0781,-0.0813,-0.0928,-0.1037,-0.1065,-0.1269,-0.1264,-0.1524,-0.1476,-0.1492,-0.1269,-0.1427,-0.1181,-0.1123,-0.1071,-0.1034,-0.1059,-0.1257,-0.1568,-0.1572,-0.1576,-0.1579,0,-0.0519,-0.0544,-0.0566,-0.0629,-0.0631,-0.0644,-0.0702,-0.0732,-0.0818,-0.0845,-0.0868,-0.101,-0.0939,-0.1024,-0.1024,-0.1031,-0.0915,-0.0761,-0.0521,-0.0448,-0.0262,-0.0468,-0.0342,-0.0312,-0.0287,-0.0278,-0.0271,0,-0.0487,-0.0478,-0.052,-0.0509,-0.0536,-0.0533,-0.0544,-0.0635,-0.0653,-0.0658,-0.0651,-0.0559,-0.0502,-0.0329,-0.033,-0.0177,-0.0406,0.0064,-0.0205,-0.016,-0.0353,-0.0508,-0.0511,0.0065,0.0075,0.0083,0.0089,0,-0.0428,-0.0446,-0.046,-0.0436,-0.0424,-0.0403,-0.0401,-0.0381,-0.0447,-0.04,-0.03,-0.0226,0.0009,0.0131,0.0365,0.0414,-0.005,0.0239,0.0097,-0.0197,-0.0194,-0.0164,-0.0157,0.0159,0.0152,0.0146,0.0143,0.014,-0.039,-0.0367,-0.037,-0.0362,-0.0329,-0.0285,-0.0257,-0.022,-0.016,-0.01,-0.0022,0.0142,0.0362,0.0654,0.0718,0.0844,0.0598,0.0732,0.0486,0.0341,0.0284,0.0618,0.1053,0.1052,0.105,0.1049,0.1048,0,-0.0345,-0.0314,-0.0286,-0.0271,-0.0238,-0.0234,-0.0171,-0.0128,-0.0016,0.0096,0.0235,0.0543,0.0779,0.0909,0.1104,0.1023,0.0887,0.0901,0.0568,0.0554,0.0735,0.0658,0.1247,0.1247,0.1247,0.1247,0.1247,0.1247,-0.0312,-0.0271,-0.0258,-0.0186,-0.0168,-0.0082,-0.0044,0.0046,0.0142,0.0364,0.0536,0.0649,0.0805,0.0846,0.0871,0.0867,0.0593,0.0605,0.0459,0.0395,0.0354,0.0314,0.0199,0.0682,0.0681,0.0396,0.0392,0.0388]},{"header":{"parameterUnit":"m.s-1","parameterCategory":2,"la1":30.2991,"la2":30.254,"lo1":-89.0895,"lo2":-89.0444,"dy":0.0017,"dx":0.0017,"nx":28,"ny":28,"refTime":"2023-04-12T21:00:00:Z","depth":"0","parameterNumber":3,"parameterNumberName":"V-component_of_CURRENTS"},"data":[0,0,0,0,0,0,0,0,0,0,0,0,0,0,0,0,0,0,0,0,0,0,0,0,0,0,0,0,0,0,0,0,0,0,0,0,0,0,0,0,0,0,0,0,0,0,0,0,0,0,0,0,0,0,0,0,0,0,-0.0083,-0.0082,0,0.0002,0.0003,0.0004,0.0102,0.0103,0.0104,0.0106,0.0212,0.0214,0.0216,0,0,0,0,0,0,0,0,0,0,0,0,0,-0.0129,-0.0129,-0.0083,-0.0082,-0.0081,0.0002,0.0003,0.0004,0.0102,0.0103,0.0105,0.0106,0.0212,0.0214,0.0216,0,0,0,0,0,0,0,0,0,0,0,0,0,-0.0081,-0.0129,-0.0083,-0.0024,-0.0018,0.0001,0.0003,0.0005,0.0101,0.0103,0.0105,0.0107,0.0211,0.0214,0.0216,0.0194,0,0,0.0224,0.0225,0,0,0,0,0,0,0,0,-0.0084,-0.0079,-0.0034,-0.0028,-0.0022,0.0041,0.0026,0.0068,0.0101,0.0058,0.0106,0.0108,0.0154,0.0161,0.0176,0.0199,0.0204,0.0224,0.0225,0.0227,0.0227,0,0,0,0,0,0,0,-0.0088,-0.0082,-0.0047,-0.0033,-0.0026,0.0008,0.0017,0.0034,0.0097,0.0062,0.0069,0.0074,0.0158,0.0174,0.018,0.0205,0.0224,0.0226,0.0228,0.0229,0.0271,0.0271,0,0,0,0,0,0,-0.0107,-0.0086,-0.0049,-0.0044,-0.0052,0.0007,0.0017,0.0021,0.0097,0.0109,0.0072,0.0078,0.0168,0.0176,0.0184,0.0147,0.0227,0.0229,0.023,0.0271,0.0271,0.0271,0,0,0,0,0,0,-0.0108,-0.0104,-0.0053,-0.0065,-0.0056,0.0005,0.0009,0.0022,0.0041,0.0103,0.0117,0.0079,0.017,0.018,0.0213,0.0153,0.023,0.0232,0.0272,0.0271,0.0271,0.0083,0,0,0,0,0,0,-0.011,-0.0105,-0.0113,-0.0066,-0.0056,-0.0074,0.0008,0.0022,0.004,0.0048,0.0113,0.0125,0.0172,0.0209,0.0215,0.0157,0.0234,0.0272,0.0272,0.0271,0.009,0.0076,0.0064,0,0,0,0,0,-0.0112,-0.0142,-0.0114,-0.0109,-0.0067,-0.0077,-0.007,-0.0016,0.0038,0.0015,0.0094,0.0124,0.0209,0.021,0.0218,0.0159,0.0273,0.0272,0.0271,0.0095,0.0079,0.0065,0,0,0,0,0,0,-0.0162,-0.0133,-0.0101,-0.0118,-0.011,-0.0062,-0.0068,-0.0028,0.0016,0.0044,0.0117,0.0132,0.014,0.0188,0.0187,0.0178,0.0245,0.0246,0.0109,0.0094,0.0082,0.0032,0.0236,0,0,0,0,0,-0.0179,-0.0192,-0.0161,-0.0176,-0.0172,-0.0118,-0.0111,-0.0076,-0.003,-0.0007,0.0035,0.0099,0.0139,0.0149,0.0192,0.0175,0.0261,0.0149,0.0136,0.0125,0.0095,0.0174,0.0165,0.0268,0.0268,0.0268,0,0,-0.0198,-0.0187,-0.0189,-0.0188,-0.0163,-0.0188,-0.0109,-0.0108,-0.0136,-0.0005,-0.0022,0.0054,0.0132,0.0125,0.013,0.0154,0.0154,0.0124,0.0112,0.0088,0.0172,0.0162,0.0153,0.0267,0.0267,0.0267,0,0,-0.0243,-0.0236,-0.0253,-0.0266,-0.0251,-0.0239,-0.0246,-0.0212,-0.0205,-0.0211,-0.0108,-0.0065,-0.0029,0.0016,0.0047,-0.0009,0.0092,0.0007,-0.012,-0.0043,-0.0051,-0.0058,0.0083,0.009,-0.0012,-0.0013,-0.0013,0,-0.0256,-0.0275,-0.0265,-0.0296,-0.0304,-0.0271,-0.0295,-0.0316,-0.028,-0.027,-0.0243,-0.0145,-0.0089,-0.0073,-0.0096,-0.0048,0.0044,-0.0079,-0.0064,-0.0069,-0.0073,0.0073,0.0083,-0.0022,-0.0021,-0.002,-0.0019,0,-0.0314,-0.0333,-0.0355,-0.0381,-0.0407,-0.0429,-0.045,-0.0476,-0.0459,-0.0446,-0.0431,-0.0352,-0.028,-0.0274,-0.0216,-0.0217,-0.0122,-0.0083,-0.0039,-0.0096,0.0064,0.0078,-0.0035,-0.0032,-0.0029,-0.0027,0,0,-0.0309,-0.0372,-0.0379,-0.0386,-0.0443,-0.0456,-0.0545,-0.0577,-0.058,-0.0605,-0.0594,-0.0577,-0.0504,-0.0463,-0.0378,-0.0353,-0.0293,-0.0257,-0.0248,-0.0141,-0.0069,-0.0085,-0.0069,-0.0253,-0.0253,-0.0253,0.0069,0,-0.0335,-0.0395,-0.0433,-0.0493,-0.0512,-0.0545,-0.0615,-0.0651,-0.0665,-0.0666,-0.0641,-0.059,-0.0588,-0.0515,-0.0512,-0.0327,-0.0273,-0.0381,-0.001,0.0002,-0.0028,-0.0062,-0.0034,0.0245,0.0084,0.0086,0.0088,0,-0.0364,-0.0395,-0.0452,-0.0499,-0.0508,-0.0561,-0.0609,-0.0666,-0.0704,-0.0698,-0.07,-0.0642,-0.0611,-0.058,-0.04,-0.0464,-0.0297,-0.0181,-0.0164,-0.0118,0.0007,0.027,0.0278,0.0408,0.0111,0.0109,0.0107,0,-0.0332,-0.0401,-0.0437,-0.0464,-0.0535,-0.0564,-0.0605,-0.066,-0.0676,-0.0695,-0.066,-0.0645,-0.0564,-0.0452,-0.0274,-0.0303,-0.0041,-0.0016,0.0131,0.0138,0.026,0.0274,0.0405,0.0122,0.0121,0.012,0.0119,0,-0.0337,-0.0359,-0.0421,-0.0444,-0.0471,-0.053,-0.0558,-0.0602,-0.0624,-0.0608,-0.0649,-0.0604,-0.0534,-0.0395,-0.025,-0.0033,-0.0003,0.0097,0.0191,0.0202,0.0205,0.0404,0.043,0.0133,0.013,0.0128,0.0125,0,-0.0295,-0.0345,-0.0381,-0.0446,-0.0459,-0.0482,-0.0529,-0.0541,-0.0566,-0.0538,-0.053,-0.0525,-0.0376,-0.0265,-0.0019,0.0044,0.0326,0.0341,0.0358,0.0439,0.0605,0.0619,0.0801,0.0894,0.0536,0.0538,0.0538,0,-0.0279,-0.0297,-0.0363,-0.0383,-0.0414,-0.0448,-0.0467,-0.0513,-0.0514,-0.0476,-0.0443,-0.0334,-0.0257,0.0032,0.0154,0.0398,0.0478,0.0579,0.0469,0.0591,0.0681,0.0661,0.0725,0.0628,0.0629,0.0631,0.0632,0,-0.0235,-0.0266,-0.0295,-0.0338,-0.0369,-0.039,-0.0412,-0.0394,-0.0416,-0.0364,-0.0277,-0.0208,-0.0028,0.0136,0.0359,0.051,0.0617,0.0608,0.0745,0.073,0.0714,0.0859,0.049,0.0643,0.0642,0.0641,0.064,0.064,-0.0198,-0.02,-0.0244,-0.029,-0.0321,-0.0323,-0.0316,-0.03,-0.0252,-0.0148,-0.0117,0.0036,0.0172,0.0423,0.0576,0.0821,0.0751,0.0898,0.0916,0.0895,0.0901,0.0536,0.0751,0.0751,0.075,0.075,0.075,0,-0.014,-0.0152,-0.0187,-0.0241,-0.0266,-0.0292,-0.027,-0.0235,-0.0141,-0.0001,0.0111,0.0377,0.0547,0.0721,0.0957,0.1113,0.1166,0.1208,0.1226,0.1288,0.1019,0.0934,0.1181,0.1181,0.1181,0.1181,0.118,0.118,-0.011,-0.0115,-0.0142,-0.0178,-0.021,-0.019,-0.0164,-0.0092,0.0016,0.0288,0.0499,0.0652,0.0871,0.1084,0.1359,0.1423,0.158,0.1521,0.1617,0.1458,0.1431,0.1406,0.1334,0.1661,0.1661,0.1902,0.1904,0.1906]}],[{"header":{"parameterUnit":"m.s-1","parameterCategory":2,"la1":30.2991,"la2":30.254,"lo1":-89.0895,"lo2":-89.0444,"dy":0.0017,"dx":0.0017,"nx":28,"ny":28,"refTime":"2023-04-12T21:00:00:Z","depth":"2","parameterNumber":2,"parameterNumberName":"U-component_of_CURRENTS"},"data":[0,0,0,0,0,0,0,0,0,0,0,0,0,0,0,0,0,0,0,0,0,0,0,0,0,0,0,0,0,0,0,0,0,0,0,0,0,0,0,0,0,0,0,0,0,0,0,0,0,0,0,0,0,0,0,0,0,0,-0.1833,-0.1833,0,-0.1868,-0.1868,-0.1868,-0.1858,-0.1858,-0.1857,-0.1856,-0.2075,-0.2081,-0.2087,0,0,0,0,0,0,0,0,0,0,0,0,0,-0.1794,-0.1794,-0.1833,-0.1833,-0.1834,-0.1868,-0.1868,-0.1868,-0.1858,-0.1857,-0.1857,-0.1856,-0.2073,-0.208,-0.2088,0,0,0,0,0,0,0,0,0,0,0,0,0,-0.1816,-0.1794,-0.1833,-0.1834,-0.1835,-0.1867,-0.1868,-0.1868,-0.1858,-0.1857,-0.1857,-0.1856,-0.207,-0.2079,-0.2089,-0.2165,0,0,-0.2118,-0.2122,0,0,0,0,0,0,0,0,-0.1815,-0.1818,-0.1833,-0.1834,-0.1835,-0.1859,-0.1934,-0.1977,-0.1859,-0.1848,-0.1856,-0.1855,-0.2021,-0.2035,-0.2038,-0.2175,-0.2184,-0.2119,-0.2124,-0.2128,-0.2131,0,0,0,0,0,0,0,-0.1813,-0.1816,-0.1845,-0.1834,-0.1835,-0.1846,-0.1847,-0.1941,-0.1941,-0.1849,-0.1848,-0.1855,-0.2023,-0.2029,-0.2044,-0.2188,-0.2118,-0.2127,-0.2133,-0.2136,-0.2258,-0.2256,0,0,0,0,0,0,-0.1811,-0.1815,-0.1844,-0.1846,-0.1824,-0.1847,-0.1849,-0.1851,-0.1936,-0.1947,-0.1856,-0.1854,-0.2013,-0.2033,-0.2052,-0.2109,-0.2128,-0.2137,-0.2143,-0.226,-0.2257,-0.2255,0,0,0,0,0,0,-0.181,-0.1813,-0.1843,-0.1833,-0.1837,-0.1848,-0.1851,-0.1852,-0.1859,-0.194,-0.1954,-0.1861,-0.2013,-0.2039,-0.2071,-0.2119,-0.2142,-0.215,-0.2263,-0.2259,-0.2256,-0.2249,0,0,0,0,0,0,-0.1809,-0.1813,-0.1815,-0.1832,-0.1838,-0.1861,-0.1852,-0.1853,-0.1865,-0.1864,-0.1951,-0.1968,-0.2014,-0.2056,-0.208,-0.2133,-0.2158,-0.2266,-0.2262,-0.2257,-0.2253,-0.2246,-0.224,0,0,0,0,0,-0.1807,-0.1812,-0.1815,-0.1819,-0.184,-0.1861,-0.1865,-0.1869,-0.1866,-0.1871,-0.188,-0.1966,-0.2044,-0.2061,-0.2091,-0.2148,-0.2269,-0.2263,-0.2258,-0.2255,-0.2247,-0.224,0,0,0,0,0,0,-0.1805,-0.1812,-0.1816,-0.1825,-0.1842,-0.186,-0.1869,-0.1874,-0.1886,-0.1884,-0.1945,-0.1963,-0.2005,-0.2054,-0.2071,-0.2152,-0.2169,-0.2169,-0.2157,-0.2151,-0.2144,-0.2252,-0.2166,0,0,0,0,0,-0.1805,-0.1803,-0.1823,-0.1831,-0.1841,-0.1857,-0.1867,-0.1871,-0.1884,-0.1888,-0.1939,-0.1975,-0.2007,-0.2056,-0.2089,-0.2163,-0.217,-0.2205,-0.2199,-0.2194,-0.2291,-0.2332,-0.2341,-0.2236,-0.2236,-0.2236,0,0,-0.1806,-0.1812,-0.181,-0.1829,-0.1843,-0.1868,-0.186,-0.1877,-0.1903,-0.1919,-0.1962,-0.1963,-0.2008,-0.205,-0.208,-0.2107,-0.2177,-0.2187,-0.2183,-0.2286,-0.2328,-0.2339,-0.2349,-0.2233,-0.2233,-0.2234,0,0,-0.1808,-0.1815,-0.1814,-0.1831,-0.1852,-0.1872,-0.1879,-0.1899,-0.1914,-0.1941,-0.1937,-0.1952,-0.2027,-0.2059,-0.2088,-0.2075,-0.2125,-0.2079,-0.2185,-0.2219,-0.2232,-0.2243,-0.2072,-0.2069,-0.2101,-0.2101,-0.2101,0,-0.1818,-0.1856,-0.1821,-0.1834,-0.1917,-0.1877,-0.1962,-0.1928,-0.1952,-0.2032,-0.1952,-0.2049,-0.2042,-0.2152,-0.2107,-0.208,-0.2049,-0.2218,-0.2221,-0.2234,-0.2246,-0.207,-0.2067,-0.21,-0.21,-0.21,-0.21,0,-0.1822,-0.1876,-0.1888,-0.1914,-0.1961,-0.2034,-0.2028,-0.2054,-0.207,-0.2089,-0.2177,-0.2116,-0.2208,-0.2161,-0.2134,-0.2233,-0.2148,-0.2189,-0.2262,-0.2258,-0.2066,-0.2064,-0.2099,-0.2099,-0.2099,-0.21,0,0,-0.1867,-0.1903,-0.1927,-0.2003,-0.2068,-0.211,-0.217,-0.2298,-0.2329,-0.2325,-0.2425,-0.2416,-0.2403,-0.2429,-0.2377,-0.2392,-0.231,-0.2342,-0.2344,-0.2208,-0.2256,-0.1968,-0.1935,-0.2385,-0.2389,-0.2392,-0.2018,0,-0.1952,-0.2039,-0.2067,-0.221,-0.2296,-0.2355,-0.2393,-0.246,-0.2481,-0.2497,-0.2515,-0.2504,-0.249,-0.2458,-0.2505,-0.2366,-0.2339,-0.2401,-0.2256,-0.2249,-0.2031,-0.1939,-0.2005,-0.1667,-0.2015,-0.2015,-0.2015,0,-0.1998,-0.2089,-0.2266,-0.2423,-0.2469,-0.2516,-0.2699,-0.2701,-0.2716,-0.272,-0.2801,-0.2736,-0.2744,-0.2663,-0.259,-0.264,-0.2487,-0.2363,-0.2347,-0.2133,-0.1966,-0.1764,-0.165,-0.2011,-0.2011,-0.2011,-0.2012,0,-0.2085,-0.2252,-0.2445,-0.25,-0.2611,-0.2732,-0.2769,-0.281,-0.2773,-0.2815,-0.275,-0.286,-0.2723,-0.2739,-0.2476,-0.2551,-0.2295,-0.2352,-0.1947,-0.1914,-0.1977,-0.1945,-0.2329,-0.233,-0.233,-0.2332,-0.2333,0,-0.2203,-0.2343,-0.248,-0.2561,-0.2718,-0.2778,-0.2835,-0.2882,-0.2824,-0.2743,-0.2815,-0.2711,-0.2745,-0.2585,-0.2487,-0.2144,-0.2307,-0.1957,-0.1847,-0.1938,-0.1909,-0.2282,-0.2282,-0.2317,-0.232,-0.2323,-0.2326,0,-0.2234,-0.2337,-0.2523,-0.2708,-0.2732,-0.2816,-0.2758,-0.2717,-0.27,-0.2577,-0.2563,-0.2523,-0.2328,-0.2243,-0.2082,-0.1991,-0.1786,-0.162,-0.1596,-0.1493,-0.1368,-0.1372,-0.1183,-0.1171,-0.1161,-0.1152,-0.1145,0,-0.2262,-0.2361,-0.256,-0.2578,-0.2659,-0.2703,-0.2644,-0.2646,-0.2572,-0.2427,-0.2355,-0.2143,-0.1977,-0.1584,-0.1425,-0.1159,-0.1348,-0.1041,-0.1246,-0.1363,-0.1275,-0.1294,-0.131,-0.1227,-0.1221,-0.1216,-0.1212,0,-0.2337,-0.2405,-0.2517,-0.2513,-0.2525,-0.2499,-0.2449,-0.2373,-0.2321,-0.2206,-0.2022,-0.1873,-0.1474,-0.1246,-0.0869,-0.0775,-0.1129,-0.0917,-0.1127,-0.149,-0.1372,-0.1295,-0.1318,-0.1169,-0.1173,-0.1176,-0.1179,-0.118,-0.2364,-0.24,-0.2454,-0.2431,-0.2392,-0.23,-0.2207,-0.2133,-0.1988,-0.1789,-0.1744,-0.1463,-0.1335,-0.0745,-0.0577,-0.0456,-0.0528,-0.0659,-0.0691,-0.0725,-0.0781,-0.0652,-0.0309,-0.0309,-0.0308,-0.0308,-0.0308,0,-0.2348,-0.2319,-0.2309,-0.2268,-0.2129,-0.2156,-0.2037,-0.1908,-0.1715,-0.1534,-0.1331,-0.1065,-0.0816,-0.0658,-0.0383,-0.0232,-0.0403,-0.0275,-0.0637,-0.0678,-0.0715,-0.079,-0.031,-0.0309,-0.0308,-0.0307,0,0,-0.2329,-0.2285,-0.2232,-0.2012,-0.1924,-0.173,-0.1646,-0.15,-0.134,-0.1089,-0.0905,-0.0782,-0.0684,-0.0514,-0.0438,-0.0349,-0.0518,-0.0323,-0.0344,-0.0819,-0.0855,-0.0964,-0.1121,0,0,0,0,0]},{"header":{"parameterUnit":"m.s-1","parameterCategory":2,"la1":30.2991,"la2":30.254,"lo1":-89.0895,"lo2":-89.0444,"dy":0.0017,"dx":0.0017,"nx":28,"ny":28,"refTime":"2023-04-12T21:00:00:Z","depth":"2","parameterNumber":3,"parameterNumberName":"V-component_of_CURRENTS"},"data":[0,0,0,0,0,0,0,0,0,0,0,0,0,0,0,0,0,0,0,0,0,0,0,0,0,0,0,0,0,0,0,0,0,0,0,0,0,0,0,0,0,0,0,0,0,0,0,0,0,0,0,0,0,0,0,0,0,0,-0.0007,-0.0007,0,-0.0003,-0.0003,-0.0003,0.0022,0.0022,0.0023,0.0023,0.0224,0.0229,0.0234,0,0,0,0,0,0,0,0,0,0,0,0,0,-0.0008,-0.0008,-0.0007,-0.0007,-0.0007,-0.0003,-0.0003,-0.0003,0.0022,0.0022,0.0023,0.0023,0.0222,0.0228,0.0234,0,0,0,0,0,0,0,0,0,0,0,0,0,-0.0005,-0.0008,-0.0007,0.0004,0.0006,-0.0003,-0.0003,-0.0003,0.0022,0.0022,0.0023,0.0024,0.022,0.0228,0.0235,0.0265,0,0,0.0257,0.026,0,0,0,0,0,0,0,0,-0.0005,-0.0005,0.0003,0.0004,0.0005,0.0009,0.0071,0.0096,0.0021,0.0016,0.0023,0.0024,0.0169,0.0181,0.0178,0.0274,0.0283,0.0258,0.0262,0.0265,0.0267,0,0,0,0,0,0,0,-0.0005,-0.0005,-0.0005,0.0003,0.0004,0.0005,0.0007,0.0075,0.0093,0.0017,0.0018,0.0017,0.0171,0.0171,0.0184,0.0286,0.0258,0.0264,0.0269,0.0271,0.0382,0.0381,0,0,0,0,0,0,-0.0008,-0.0005,-0.0005,-0.0005,0.0,0.0005,0.0006,0.0008,0.0088,0.0099,0.0017,0.0018,0.0158,0.0175,0.0191,0.0223,0.0265,0.0272,0.0276,0.0384,0.0382,0.038,0,0,0,0,0,0,-0.0008,-0.0008,-0.0005,-0.0006,-0.0005,0.0004,0.0005,0.0007,0.0011,0.0085,0.0101,0.0018,0.0159,0.0181,0.0212,0.0232,0.0275,0.0282,0.0385,0.0383,0.0381,0.0294,0,0,0,0,0,0,-0.0008,-0.0008,-0.0008,-0.0006,-0.0005,-0.0009,0.0004,0.0007,0.0008,0.0011,0.0092,0.0111,0.0162,0.02,0.0219,0.0243,0.0288,0.0387,0.0384,0.0382,0.0299,0.0289,0.0281,0,0,0,0,0,-0.0008,-0.0013,-0.0008,-0.0008,-0.0006,-0.001,-0.001,0.0,0.0007,0.0006,0.003,0.0108,0.0197,0.0203,0.0227,0.0254,0.0388,0.0385,0.0382,0.0303,0.0291,0.0281,0,0,0,0,0,0,-0.0019,-0.0011,-0.0006,-0.0009,-0.0009,-0.0006,-0.0011,-0.0003,0.0012,0.0015,0.0084,0.0103,0.0139,0.0195,0.02,0.0271,0.031,0.0311,0.0242,0.0232,0.0223,0.0196,0.0294,0,0,0,0,0,-0.0021,-0.0018,-0.0015,-0.0018,-0.0021,-0.0016,-0.0017,-0.0012,0.0,0.0007,0.0057,0.0105,0.0142,0.0182,0.0224,0.027,0.0321,0.0301,0.0292,0.0284,0.0273,0.034,0.0337,0.0369,0.0369,0.037,0,0,-0.0028,-0.0022,-0.0022,-0.002,-0.0022,-0.0038,-0.0015,-0.0021,-0.0034,0.0032,0.0035,0.0077,0.014,0.017,0.0196,0.0226,0.03,0.028,0.0273,0.0267,0.0336,0.0333,0.0331,0.0367,0.0368,0.0368,0,0,-0.0048,-0.0037,-0.0045,-0.0047,-0.005,-0.0052,-0.0054,-0.0051,-0.0048,-0.0045,-0.0011,0.0027,0.0096,0.0137,0.0168,0.014,0.0239,0.0165,0.0122,0.0186,0.0185,0.0184,0.0241,0.0247,0.0175,0.0175,0.0175,0,-0.006,-0.0083,-0.005,-0.0064,-0.0096,-0.0062,-0.0107,-0.0085,-0.0073,-0.0079,-0.0052,0.0011,0.008,0.0109,0.009,0.0127,0.0167,0.0161,0.0177,0.0177,0.0178,0.0237,0.0244,0.017,0.0171,0.0171,0.0172,0,-0.0091,-0.0117,-0.0127,-0.0141,-0.0154,-0.019,-0.0174,-0.017,-0.0162,-0.0143,-0.012,-0.0051,-0.0015,0.0025,0.0051,0.0087,0.0113,0.0149,0.0207,0.0169,0.0234,0.0243,0.0164,0.0165,0.0167,0.0168,0,0,-0.013,-0.0153,-0.0163,-0.0213,-0.022,-0.0249,-0.0254,-0.0276,-0.0284,-0.023,-0.0241,-0.0168,-0.0124,-0.009,-0.0029,0.0038,0.0086,0.0085,0.0091,0.0146,0.0217,0.0211,0.0221,0.0122,0.0123,0.0123,0.0259,0,-0.0193,-0.0261,-0.0256,-0.035,-0.0405,-0.0391,-0.0404,-0.0395,-0.0368,-0.0345,-0.0255,-0.0233,-0.0165,-0.0152,-0.0076,0.0035,0.0104,0.0045,0.024,0.0246,0.025,0.0229,0.0279,0.0401,0.0268,0.027,0.0271,0,-0.0247,-0.03,-0.0406,-0.0495,-0.0519,-0.0559,-0.0613,-0.0614,-0.054,-0.0511,-0.045,-0.0371,-0.0284,-0.0214,-0.0028,-0.0075,0.0052,0.0158,0.0167,0.0196,0.0256,0.0418,0.0423,0.0286,0.0285,0.0284,0.0283,0,-0.0327,-0.0421,-0.0532,-0.056,-0.0621,-0.0681,-0.0714,-0.0675,-0.0664,-0.0618,-0.0583,-0.0476,-0.0404,-0.0251,-0.0039,-0.0041,0.0186,0.0221,0.0342,0.0344,0.0442,0.045,0.036,0.0359,0.0359,0.0359,0.0358,0,-0.0418,-0.051,-0.0587,-0.0645,-0.0761,-0.0783,-0.085,-0.0847,-0.0801,-0.0757,-0.0679,-0.0607,-0.0409,-0.0245,-0.0069,0.0156,0.0167,0.0325,0.0375,0.041,0.0413,0.0357,0.0355,0.0364,0.0363,0.0362,0.0361,0,-0.0489,-0.0534,-0.0657,-0.0763,-0.0795,-0.088,-0.0921,-0.0922,-0.0905,-0.0842,-0.0832,-0.0692,-0.0519,-0.0303,-0.0034,0.0124,0.0334,0.0419,0.0435,0.0482,0.0455,0.0447,0.0547,0.0548,0.0548,0.0549,0.0549,0,-0.0536,-0.0603,-0.0725,-0.0765,-0.0826,-0.0922,-0.0935,-0.096,-0.0936,-0.0866,-0.0818,-0.0687,-0.054,-0.0193,0.01,0.0384,0.0363,0.0568,0.0569,0.0433,0.0473,0.0464,0.0455,0.068,0.0681,0.0683,0.0684,0,-0.0617,-0.0649,-0.0726,-0.079,-0.0852,-0.0906,-0.0947,-0.0938,-0.0918,-0.0857,-0.0748,-0.0657,-0.0369,-0.0037,0.0275,0.0433,0.0509,0.0598,0.0492,0.0595,0.0562,0.0599,0.0586,0.0695,0.0694,0.0693,0.0692,0.0692,-0.0646,-0.0692,-0.0738,-0.0805,-0.0846,-0.0857,-0.0871,-0.0853,-0.08,-0.0687,-0.0656,-0.0423,-0.0224,0.0299,0.0438,0.0605,0.0627,0.0704,0.07,0.0695,0.0656,0.0623,0.0761,0.076,0.0759,0.0759,0.0758,0,-0.0657,-0.0675,-0.0729,-0.0779,-0.0803,-0.0832,-0.0827,-0.08,-0.0696,-0.0541,-0.0436,-0.0127,0.0184,0.037,0.0713,0.0822,0.079,0.0755,0.0752,0.0745,0.0737,0.0697,0.0815,0.0814,0.0813,0.0813,0,0,-0.0652,-0.0679,-0.0698,-0.0716,-0.0738,-0.0738,-0.0726,-0.064,-0.0512,-0.0342,-0.0099,0.007,0.0349,0.0565,0.0653,0.0786,0.0699,0.0738,0.0706,0.0686,0.0675,0.0747,0.0683,0,0,0,0,0]}],[{"header":{"parameterUnit":"m.s-1","parameterCategory":2,"la1":30.2991,"la2":30.254,"lo1":-89.0895,"lo2":-89.0444,"dy":0.0017,"dx":0.0017,"nx":28,"ny":28,"refTime":"2023-04-12T21:00:00:Z","depth":"4","parameterNumber":2,"parameterNumberName":"U-component_of_CURRENTS"},"data":[0,0,0,0,0,0,0,0,0,0,0,0,0,0,0,0,0,0,0,0,0,0,0,0,0,0,0,0,0,0,0,0,0,0,0,0,0,0,0,0,0,0,0,0,0,0,0,0,0,0,0,0,0,0,0,0,0,0,-0.1372,-0.1373,0,-0.1463,-0.1463,-0.1464,-0.1506,-0.1506,-0.1506,-0.1506,-0.1549,-0.155,-0.1551,0,0,0,0,0,0,0,0,0,0,0,0,0,-0.1248,-0.125,-0.1372,-0.1373,-0.1374,-0.1462,-0.1464,-0.1465,-0.1506,-0.1506,-0.1506,-0.1506,-0.1548,-0.155,-0.1551,0,0,0,0,0,0,0,0,0,0,0,0,0,-0.1315,-0.1251,-0.1371,-0.1407,-0.1411,-0.1462,-0.1464,-0.1465,-0.1506,-0.1506,-0.1506,-0.1506,-0.1548,-0.155,-0.1551,-0.1558,0,0,-0.1556,-0.1557,0,0,0,0,0,0,0,0,-0.1311,-0.1319,-0.14,-0.1405,-0.1409,-0.1475,-0.1436,-0.1494,-0.1506,-0.1468,-0.1506,-0.1506,-0.1521,-0.1525,-0.1539,-0.156,-0.1562,-0.1556,-0.1557,-0.1558,-0.1558,0,0,0,0,0,0,0,-0.1306,-0.1316,-0.1406,-0.1402,-0.1407,-0.1424,-0.1433,-0.1447,-0.149,-0.1471,-0.1475,-0.1488,-0.1523,-0.1538,-0.154,-0.1562,-0.1556,-0.1557,-0.1558,-0.1559,-0.1612,-0.1613,0,0,0,0,0,0,-0.1299,-0.1311,-0.1403,-0.1409,-0.1362,-0.1426,-0.1436,-0.1452,-0.1491,-0.1498,-0.1488,-0.149,-0.1535,-0.1539,-0.1542,-0.1593,-0.1558,-0.1559,-0.156,-0.1612,-0.1612,-0.1613,0,0,0,0,0,0,-0.1296,-0.1306,-0.1399,-0.1363,-0.1376,-0.1428,-0.1445,-0.1454,-0.1491,-0.1505,-0.151,-0.1519,-0.1535,-0.154,-0.1569,-0.1593,-0.156,-0.1561,-0.1611,-0.1612,-0.1613,-0.1667,0,0,0,0,0,0,-0.1292,-0.1304,-0.1324,-0.1363,-0.1378,-0.1441,-0.1446,-0.1456,-0.1499,-0.1503,-0.1533,-0.1536,-0.1536,-0.1567,-0.1571,-0.1594,-0.1562,-0.1611,-0.1611,-0.1612,-0.1665,-0.167,-0.1674,0,0,0,0,0,-0.1287,-0.131,-0.1324,-0.1336,-0.14,-0.1442,-0.1452,-0.1487,-0.15,-0.152,-0.1538,-0.1536,-0.1574,-0.1569,-0.1573,-0.1598,-0.161,-0.1611,-0.1612,-0.1663,-0.1669,-0.1674,0,0,0,0,0,0,-0.1268,-0.1318,-0.1334,-0.1373,-0.141,-0.145,-0.148,-0.1501,-0.1533,-0.1542,-0.1549,-0.1553,-0.1586,-0.1581,-0.1574,-0.1612,-0.1589,-0.1591,-0.1627,-0.1632,-0.1637,-0.1597,-0.1564,0,0,0,0,0,-0.1272,-0.1306,-0.1349,-0.1383,-0.1404,-0.1446,-0.1472,-0.1496,-0.1526,-0.1543,-0.1564,-0.1578,-0.1591,-0.1604,-0.1614,-0.164,-0.1628,-0.1655,-0.166,-0.1664,-0.1633,-0.1646,-0.1649,-0.1616,-0.1616,-0.1616,0,0,-0.1276,-0.1308,-0.1329,-0.1382,-0.1416,-0.1443,-0.1463,-0.151,-0.153,-0.154,-0.1581,-0.16,-0.1601,-0.1629,-0.1643,-0.1632,-0.1673,-0.1665,-0.1669,-0.1634,-0.1647,-0.165,-0.1653,-0.1617,-0.1617,-0.1617,0,0,-0.1289,-0.1329,-0.1357,-0.1386,-0.1441,-0.1463,-0.148,-0.1532,-0.1556,-0.1596,-0.1603,-0.1633,-0.1664,-0.1666,-0.1669,-0.1702,-0.1697,-0.1714,-0.1709,-0.1724,-0.1726,-0.1728,-0.1747,-0.175,-0.1716,-0.1717,-0.1717,0,-0.1292,-0.1333,-0.1372,-0.1399,-0.1428,-0.147,-0.1499,-0.1523,-0.1577,-0.1584,-0.1612,-0.1649,-0.1673,-0.1678,-0.1696,-0.1713,-0.1717,-0.1695,-0.173,-0.1732,-0.1733,-0.1751,-0.1753,-0.1719,-0.1719,-0.1719,-0.1719,0,-0.1314,-0.1354,-0.1375,-0.142,-0.145,-0.149,-0.1521,-0.1551,-0.159,-0.1603,-0.1636,-0.1672,-0.168,-0.1712,-0.1719,-0.1735,-0.1737,-0.1739,-0.1718,-0.1739,-0.1757,-0.1759,-0.1723,-0.1722,-0.1722,-0.1721,0,0,-0.1306,-0.1379,-0.1388,-0.1421,-0.147,-0.1501,-0.1521,-0.1548,-0.1556,-0.1606,-0.1616,-0.1662,-0.1673,-0.1674,-0.1699,-0.1723,-0.177,-0.1737,-0.1737,-0.1757,-0.1807,-0.1631,-0.1617,-0.1785,-0.1785,-0.1785,-0.1828,0,-0.1319,-0.138,-0.1404,-0.1458,-0.1497,-0.1524,-0.1533,-0.1554,-0.1579,-0.1594,-0.1616,-0.1638,-0.1658,-0.1684,-0.1704,-0.176,-0.1771,-0.1758,-0.1778,-0.1778,-0.1621,-0.161,-0.1785,-0.1829,-0.1829,-0.1829,-0.183,0,-0.1329,-0.1377,-0.1434,-0.1492,-0.1508,-0.1531,-0.156,-0.1571,-0.1567,-0.1584,-0.1585,-0.1598,-0.1632,-0.1655,-0.1718,-0.1712,-0.1743,-0.1783,-0.1786,-0.1588,-0.1603,-0.1794,-0.1832,-0.1832,-0.1832,-0.1832,-0.1832,0,-0.1322,-0.1396,-0.1451,-0.1473,-0.153,-0.155,-0.1568,-0.1568,-0.1555,-0.1571,-0.1569,-0.1593,-0.1636,-0.1663,-0.1722,-0.1734,-0.1787,-0.1817,-0.1675,-0.1666,-0.1793,-0.179,-0.1823,-0.1823,-0.1823,-0.1823,-0.1823,0,-0.1324,-0.1369,-0.1459,-0.149,-0.1515,-0.1561,-0.1559,-0.1568,-0.1561,-0.1516,-0.1558,-0.1521,-0.1644,-0.1671,-0.171,-0.1678,-0.1771,-0.1644,-0.1646,-0.182,-0.1819,-0.1796,-0.1793,-0.1825,-0.1824,-0.1824,-0.1824,0,-0.1289,-0.1359,-0.1415,-0.1497,-0.1511,-0.1524,-0.1525,-0.1508,-0.1531,-0.1478,-0.1479,-0.1506,-0.1518,-0.1598,-0.1677,-0.1658,-0.1658,-0.1618,-0.1794,-0.1812,-0.1539,-0.1538,-0.1467,-0.1461,-0.1455,-0.1451,-0.1447,0,-0.1271,-0.1308,-0.1395,-0.1398,-0.1431,-0.1452,-0.1436,-0.1469,-0.1437,-0.1417,-0.1375,-0.1396,-0.1396,-0.1368,-0.1468,-0.1507,-0.1494,-0.1522,-0.1512,-0.1482,-0.1494,-0.1501,-0.1507,-0.1439,-0.1437,-0.1436,-0.1434,0,-0.1218,-0.1261,-0.1294,-0.1308,-0.1317,-0.1304,-0.1301,-0.1268,-0.1279,-0.1326,-0.121,-0.1184,-0.1187,-0.123,-0.1278,-0.1299,-0.1523,-0.1467,-0.1479,-0.147,-0.1448,-0.1466,-0.1478,-0.1416,-0.1419,-0.142,-0.1421,0,-0.1152,-0.1144,-0.1187,-0.1175,-0.1177,-0.1134,-0.1162,-0.1115,-0.109,-0.1097,-0.1044,-0.1058,-0.1127,-0.1114,-0.1133,-0.1156,-0.1151,-0.117,-0.1197,-0.1219,-0.1117,-0.1052,-0.087,0,0,0,0,0,-0.1073,-0.1043,-0.1039,-0.1014,-0.1014,-0.1017,-0.1041,-0.1077,-0.1109,-0.0986,-0.1008,-0.0966,-0.0943,-0.0959,-0.0935,-0.1051,-0.119,-0.1024,-0.1234,-0.1314,-0.1335,-0.1238,0,0,0,0,0,0,-0.1013,-0.1006,-0.0999,-0.0879,-0.0831,-0.0815,-0.0833,-0.0876,-0.0818,-0.0862,-0.0851,-0.0895,-0.09,-0.092,-0.0899,-0.0916,-0.1031,-0.1054,-0.1052,-0.1301,-0.1321,-0.1338,-0.1246,0,0,0,0,0]},{"header":{"parameterUnit":"m.s-1","parameterCategory":2,"la1":30.2991,"la2":30.254,"lo1":-89.0895,"lo2":-89.0444,"dy":0.0017,"dx":0.0017,"nx":28,"ny":28,"refTime":"2023-04-12T21:00:00:Z","depth":"4","parameterNumber":3,"parameterNumberName":"V-component_of_CURRENTS"},"data":[0,0,0,0,0,0,0,0,0,0,0,0,0,0,0,0,0,0,0,0,0,0,0,0,0,0,0,0,0,0,0,0,0,0,0,0,0,0,0,0,0,0,0,0,0,0,0,0,0,0,0,0,0,0,0,0,0,0,0.0007,0.0007,0,0.0004,0.0004,0.0004,0.0018,0.0019,0.0019,0.0019,0.0041,0.0041,0.0041,0,0,0,0,0,0,0,0,0,0,0,0,0,0.0017,0.0017,0.0007,0.0007,0.0007,0.0004,0.0004,0.0004,0.0018,0.0019,0.0019,0.002,0.0041,0.0041,0.0041,0,0,0,0,0,0,0,0,0,0,0,0,0,0.0013,0.0017,0.0007,0.0014,0.0014,0.0004,0.0004,0.0004,0.0018,0.0019,0.0019,0.002,0.0041,0.0041,0.0041,0.0032,0,0,0.0042,0.0043,0,0,0,0,0,0,0,0,0.0014,0.0013,0.0013,0.0013,0.0014,0.0012,0.0015,0.0015,0.0018,0.0017,0.0019,0.002,0.0033,0.0034,0.0032,0.0033,0.0034,0.0042,0.0043,0.0043,0.0043,0,0,0,0,0,0,0,0.0014,0.0013,0.0007,0.0013,0.0013,0.0013,0.0014,0.0015,0.0023,0.0017,0.0018,0.0017,0.0033,0.0032,0.0033,0.0035,0.0042,0.0043,0.0043,0.0043,0.0055,0.0055,0,0,0,0,0,0,0.0013,0.0014,0.0007,0.0006,0.0015,0.0013,0.0013,0.0012,0.0022,0.0024,0.0016,0.0017,0.0031,0.0032,0.0034,0.0061,0.0043,0.0043,0.0043,0.0055,0.0055,0.0055,0,0,0,0,0,0,0.0013,0.0013,0.0007,0.001,0.0009,0.0012,0.0011,0.0012,0.0014,0.0021,0.0024,0.0018,0.0031,0.0033,0.004,0.0061,0.0043,0.0044,0.0055,0.0055,0.0055,0.0092,0,0,0,0,0,0,0.0014,0.0013,0.0012,0.001,0.0009,0.0007,0.001,0.0011,0.0012,0.0013,0.0023,0.0025,0.0032,0.0039,0.004,0.0061,0.0044,0.0055,0.0055,0.0055,0.0091,0.0094,0.0096,0,0,0,0,0,0.0014,0.0012,0.0012,0.0012,0.0008,0.0007,0.0007,0.0011,0.0011,0.0014,0.0019,0.0025,0.0041,0.0039,0.004,0.0062,0.0055,0.0055,0.0055,0.009,0.0093,0.0096,0,0,0,0,0,0,0.0013,0.0013,0.0014,0.0011,0.0011,0.0009,0.0008,0.001,0.0014,0.0014,0.0023,0.0026,0.0039,0.0038,0.0036,0.0064,0.005,0.0051,0.0076,0.0079,0.0082,0.0078,0.0044,0,0,0,0,0,0.0013,0.0013,0.0012,0.001,0.0009,0.0007,0.0007,0.0008,0.0011,0.0013,0.002,0.0027,0.0039,0.0049,0.0052,0.0066,0.0069,0.008,0.0083,0.0085,0.0081,0.0126,0.0133,0.0056,0.0056,0.0056,0,0,0.001,0.001,0.001,0.001,0.0007,0.0007,0.0009,0.0006,0.0013,0.0014,0.0024,0.0031,0.0042,0.006,0.0067,0.0066,0.0102,0.0085,0.0088,0.0082,0.0127,0.0135,0.0142,0.0056,0.0056,0.0056,0,0,0.0001,0.0005,0.0001,0.0004,0.0002,0.0005,0.0004,0.0004,0.0012,0.0017,0.0027,0.0051,0.0052,0.0082,0.0094,0.011,0.0109,0.0104,0.0125,0.0169,0.0176,0.0183,0.0173,0.0179,0.0114,0.0114,0.0114,0,-0.0004,-0.0016,-0.0001,-0.0003,-0.0015,0.0004,-0.0013,0.0011,0.0015,0.001,0.0022,0.0042,0.0069,0.0102,0.0121,0.0121,0.0119,0.0117,0.0175,0.0181,0.0187,0.0176,0.0182,0.0116,0.0115,0.0115,0.0115,0,-0.0016,-0.0027,-0.0031,-0.0028,-0.0027,-0.0041,-0.0016,-0.0011,-0.0004,0.001,0.003,0.0073,0.0078,0.0111,0.0128,0.018,0.0154,0.017,0.0172,0.0198,0.0183,0.0189,0.0118,0.0117,0.0117,0.0116,0,0,-0.0042,-0.0044,-0.0047,-0.0078,-0.0055,-0.0073,-0.0045,-0.0046,-0.0065,-0.0005,-0.0026,0.0067,0.0081,0.0096,0.0133,0.0201,0.0259,0.0208,0.0209,0.0205,0.0313,0.0321,0.0327,0.0288,0.0289,0.0291,0.0278,0,-0.0073,-0.0108,-0.0087,-0.013,-0.0162,-0.0138,-0.0132,-0.0116,-0.01,-0.0106,-0.0016,-0.0015,0.0081,0.0071,0.0166,0.0212,0.0277,0.0258,0.0281,0.0281,0.0294,0.0336,0.0296,0.0282,0.0283,0.0284,0.0284,0,-0.0102,-0.0133,-0.0182,-0.0238,-0.025,-0.0255,-0.0294,-0.0283,-0.0244,-0.0234,-0.0175,-0.0134,-0.0032,0.0038,0.019,0.0166,0.0246,0.0309,0.031,0.031,0.0301,0.0255,0.0294,0.0293,0.0292,0.0292,0.0291,0,-0.0171,-0.0212,-0.0271,-0.0281,-0.0311,-0.0337,-0.0349,-0.033,-0.0342,-0.0317,-0.0333,-0.0217,-0.0184,-0.0037,0.0129,0.0142,0.0279,0.0301,0.0385,0.0383,0.0361,0.0354,0.0418,0.0418,0.0418,0.0418,0.0418,0,-0.0228,-0.0284,-0.0315,-0.0349,-0.0434,-0.0423,-0.049,-0.0484,-0.0479,-0.0488,-0.0401,-0.0385,-0.0193,-0.0087,0.0074,0.0244,0.024,0.039,0.0398,0.037,0.0365,0.0363,0.0356,0.0418,0.0418,0.0418,0.0418,0,-0.0292,-0.0307,-0.0389,-0.0444,-0.0464,-0.0524,-0.0566,-0.0608,-0.0595,-0.0608,-0.0603,-0.0517,-0.0378,-0.0191,0.0011,0.0152,0.0316,0.0381,0.0298,0.0299,0.039,0.0385,0.0441,0.0442,0.0442,0.0442,0.0443,0,-0.033,-0.0373,-0.0454,-0.0503,-0.0529,-0.0602,-0.0644,-0.0654,-0.0672,-0.0665,-0.0667,-0.0582,-0.0486,-0.0215,-0.0014,0.0246,0.0319,0.0371,0.0442,0.0399,0.04,0.0395,0.039,0.0444,0.0444,0.0444,0.0444,0,-0.0408,-0.0428,-0.0489,-0.0573,-0.0636,-0.071,-0.0755,-0.0772,-0.0765,-0.0769,-0.0699,-0.0569,-0.0431,-0.0212,-0.0017,0.0191,0.0318,0.0377,0.0378,0.0445,0.0403,0.0402,0.0397,0.0446,0.0445,0.0445,0.0445,0,-0.0459,-0.0514,-0.0572,-0.0646,-0.0723,-0.0776,-0.0803,-0.0799,-0.0809,-0.0759,-0.0738,-0.0585,-0.0498,-0.0243,-0.0051,0.0136,0.0199,0.0276,0.0284,0.0284,0.027,0.0195,0.0185,0,0,0,0,0,-0.0508,-0.0562,-0.0638,-0.0717,-0.0784,-0.0816,-0.0857,-0.0863,-0.0842,-0.0786,-0.0749,-0.0601,-0.0342,-0.0254,-0.0061,-0.0046,0.0216,0.0183,0.0305,0.0455,0.0453,0.0469,0,0,0,0,0,0,-0.0547,-0.0623,-0.0647,-0.0742,-0.0791,-0.0866,-0.0884,-0.0876,-0.0822,-0.0777,-0.064,-0.0556,-0.0309,-0.0449,-0.0061,-0.0011,0.0094,0.0304,0.0308,0.0456,0.0454,0.0453,0.0469,0,0,0,0,0]}]]